Sleetmute, AK

2:39 PM AKDT on September 24, 2017 (GMT -0800)
Sleetmute

Weather History for PASL - November, 2012

Change the Weather History Date:

Saturday, November 24, 2012

  Actual Average Record
Temperature  
Mean Temperature -11 °F -  
Max Temperature -4 °F 11 °F 39 °F (2010)
Min Temperature -18 °F 0 °F -23 °F (2006)
Degree Days  
Heating Degree Days 76    
Moisture  
Dew Point -22 °F    
Average Humidity 66    
Maximum Humidity 100    
Minimum Humidity 46    
Precipitation  
Precipitation 0.00 in - - ()
Sea Level Pressure  
Sea Level Pressure 30.03 in    
Wind  
Wind Speed 0 mph (North)    
Max Wind Speed 0 mph    
Max Gust Speed -    
Visibility 10 miles    
Events      
Averages and records for this station are not official NWS values.
T = Trace of Precipitation, MM = Missing Value Source: NWS Daily Summary

Daily Weather History Graph

Daily Weather History Graph

Search for Another Location

Airport or City:

Trip Planner

Search our weather history database for the weather conditions in past years. The results will help you decide how hot, cold, wet, or windy it might be!

Date:

Astronomy

Nov. 24, 2012 Rise Set
Actual Time 10:03 AM AKST 4:26 PM AKST
Civil Twilight 9:06 AM AKST 5:23 PM AKST
Nautical Twilight 8:09 AM AKST 6:20 PM AKST
Astronomical Twilight 7:16 AM AKST 7:13 PM AKST
Moon 3:04 PM AKST 5:38 AM AKST
Length of Visible Light 8h 16m
Length of Day
6h 22m
Waxing Gibbous, 88% of the Moon is Illuminated
Nov 24
Waxing Gibbous
Nov 28
Full
Dec 6
Last Quarter
Dec 12
New
Dec 19
First Quarter

Hourly Weather History & Observations

Time (AKST) Temp. Dew Point Humidity Pressure Visibility Wind Dir Wind Speed Gust Speed Precip Events Conditions
12:16 AM -14.8 °F -29.2 °F 48% 29.98 in 10.0 mi Calm Calm - N/A   Clear
12:36 AM -14.8 °F - N/A% 29.98 in 10.0 mi Calm Calm - N/A   Clear
12:56 AM -14.8 °F - N/A% 29.98 in 10.0 mi Calm Calm - N/A   Clear
1:16 AM -14.8 °F -20.2 °F 77% 29.98 in 10.0 mi Calm Calm - N/A   Clear
1:36 AM -14.8 °F -25.6 °F 58% 29.98 in 10.0 mi Calm Calm - N/A   Clear
1:56 AM -14.8 °F -25.6 °F 58% 29.98 in 10.0 mi Calm Calm - N/A   Clear
2:16 AM -14.8 °F -23.8 °F 64% 29.99 in 10.0 mi Calm Calm - N/A   Clear
2:56 AM -14.8 °F -25.6 °F 58% 29.99 in 10.0 mi Calm Calm - N/A   Clear
3:16 AM -16.6 °F -25.6 °F 64% 29.99 in 10.0 mi Calm Calm - N/A   Clear
3:36 AM -16.6 °F -23.8 °F 70% 29.99 in 10.0 mi Calm Calm - N/A   Clear
3:56 AM -16.6 °F -29.2 °F 53% 29.99 in 10.0 mi Calm Calm - N/A   Clear
4:16 AM -16.6 °F -25.6 °F 64% 29.99 in 10.0 mi Calm Calm - N/A   Clear
4:36 AM -18.4 °F -25.6 °F 70% 29.99 in 10.0 mi Calm Calm - N/A   Clear
5:16 AM -18.4 °F -27.4 °F 63% 29.99 in 10.0 mi Calm Calm - N/A   Clear
5:36 AM -18.4 °F -25.6 °F 70% 29.99 in 7.0 mi Calm Calm - N/A   Clear
5:56 AM -18.4 °F -29.2 °F 58% 29.99 in 10.0 mi Calm Calm - N/A   Clear
6:16 AM -18.4 °F -27.4 °F 63% 29.99 in 9.0 mi Calm Calm - N/A   Clear
6:56 AM -18.4 °F -27.4 °F 63% 29.99 in 10.0 mi Calm Calm - N/A   Clear
7:16 AM -18.4 °F -25.6 °F 70% 29.99 in 10.0 mi Calm Calm - N/A   Clear
7:36 AM -18.4 °F -27.4 °F 63% 29.99 in 10.0 mi Calm Calm - N/A   Clear
8:16 AM -16.6 °F -23.8 °F 70% 29.99 in 10.0 mi Calm Calm - N/A   Clear
8:36 AM -16.6 °F -27.4 °F 58% 30.00 in 10.0 mi Calm Calm - N/A   Clear
9:16 AM -16.6 °F -25.6 °F 64% 30.00 in 10.0 mi Calm Calm - N/A   Clear
9:36 AM -16.6 °F -27.4 °F 58% 30.00 in 10.0 mi Calm Calm - N/A   Clear
9:56 AM -16.6 °F -23.8 °F 70% 30.01 in 10.0 mi Calm Calm - N/A   Clear
10:16 AM -16.6 °F -25.6 °F 64% 30.02 in 10.0 mi Calm Calm - N/A   Clear
10:36 AM -16.6 °F -27.4 °F 58% 30.02 in 10.0 mi Calm Calm - N/A   Clear
10:56 AM -16.6 °F -23.8 °F 70% 30.02 in 10.0 mi Calm Calm - N/A   Clear
11:36 AM -14.8 °F -22.0 °F 70% 30.02 in 10.0 mi Calm Calm - N/A   Clear
11:56 AM -13.0 °F -18.4 °F 77% 30.02 in 10.0 mi Calm Calm - N/A   Clear
12:16 PM -11.2 °F -20.2 °F 64% 30.01 in 10.0 mi Calm Calm - N/A   Clear
12:36 PM -11.2 °F -16.6 °F 77% 30.01 in 10.0 mi Calm Calm - N/A   Clear
12:56 PM -9.4 °F -16.6 °F 71% 30.01 in 10.0 mi Calm Calm - N/A   Clear
1:16 PM -7.6 °F -16.6 °F 65% 30.01 in 10.0 mi Calm Calm - N/A   Clear
1:36 PM -5.8 °F -11.2 °F 77% 30.01 in 10.0 mi Calm Calm - N/A   Clear
1:56 PM -5.8 °F -14.8 °F 65% 30.01 in 9.0 mi Calm Calm - N/A   Clear
2:16 PM -4.0 °F -11.2 °F 71% 30.02 in 10.0 mi Calm Calm - N/A   Partly Cloudy
2:36 PM -4.0 °F -11.2 °F 71% 30.02 in 3.0 mi Calm Calm - N/A   Partly Cloudy
2:56 PM -4.0 °F -16.6 °F 55% 30.02 in 5.0 mi Calm Calm - N/A   Clear
3:16 PM -4.0 °F -7.6 °F 85% 30.02 in 10.0 mi Calm Calm - N/A   Clear
3:36 PM -5.8 °F -22.0 °F 46% 30.02 in 10.0 mi Calm Calm - N/A   Clear
3:56 PM -5.8 °F -11.2 °F 77% 30.02 in 10.0 mi Calm Calm - N/A   Clear
4:16 PM -7.6 °F -22.0 °F 50% 30.03 in 10.0 mi Calm Calm - N/A   Clear
4:36 PM -9.4 °F -16.6 °F 71% 30.03 in 10.0 mi Calm Calm - N/A   Clear
4:56 PM -9.4 °F -20.2 °F 59% 30.03 in 10.0 mi Calm Calm - N/A   Clear
5:16 PM -11.2 °F -23.8 °F 54% 30.03 in 10.0 mi Calm Calm - N/A   Clear
5:36 PM -11.2 °F -16.6 °F 77% 30.04 in 10.0 mi Calm Calm - N/A   Clear
5:56 PM -11.2 °F -25.6 °F 49% 30.04 in 10.0 mi Calm Calm - N/A   Clear
6:36 PM -13.0 °F -25.6 °F 53% 30.06 in 10.0 mi Calm Calm - N/A   Clear
6:56 PM -13.0 °F -20.2 °F 70% 30.06 in 10.0 mi Calm Calm - N/A   Clear
7:36 PM -14.8 °F -25.6 °F 58% 30.07 in 10.0 mi Calm Calm - N/A   Clear
7:56 PM -14.8 °F -18.4 °F 84% 30.08 in 10.0 mi Calm Calm - N/A   Clear
8:16 PM -14.8 °F -27.4 °F 53% 30.08 in 10.0 mi Calm Calm - N/A   Clear
8:36 PM -14.8 °F -18.4 °F 84% 30.09 in 10.0 mi Calm Calm - N/A   Clear
8:56 PM -14.8 °F -27.4 °F 53% 30.10 in 10.0 mi Calm Calm - N/A   Clear
9:16 PM -14.8 °F -27.4 °F 53% 30.11 in 8.0 mi Calm Calm - N/A   Clear
9:36 PM -13.0 °F -13.0 °F 100% 30.11 in 10.0 mi Calm Calm - N/A   Clear
10:36 PM -14.8 °F -14.8 °F 100% 30.12 in 10.0 mi Calm Calm - N/A   Clear
11:16 PM -16.6 °F -25.6 °F 64% 30.14 in 10.0 mi Calm Calm - N/A   Clear
11:36 PM -16.6 °F -18.4 °F 92% 30.15 in 10.0 mi Calm Calm - N/A   Clear
11:56 PM -16.6 °F - N/A% 30.16 in 10.0 mi Calm Calm - N/A   Clear